EDT,Max TemperatureF,Mean TemperatureF,Min TemperatureF,Max Dew PointF,MeanDew PointF,Min DewpointF,Max Humidity, Mean Humidity, Min Humidity, Max Sea Level PressureIn, Mean Sea Level PressureIn, Min Sea Level PressureIn, Max VisibilityMiles, Mean VisibilityMiles, Min VisibilityMiles, Max Wind SpeedMPH, Mean Wind SpeedMPH, Max Gust SpeedMPH,PrecipitationIn, CloudCover, Events, WindDirDegrees
2013-5-1,66,58,50,50,43,32,88,63,30,30.43,30.36,30.27,10,10,10,12,5,18,0.00,2,,63
2013-5-2,64,55,46,48,46,45,93,77,52,30.45,30.40,30.34,10,9,2,9,2,,0.00,5,,55
2013-5-3,62,53,44,46,40,34,93,64,36,30.39,30.35,30.31,10,10,7,16,4,22,0.00,1,,77
2013-5-4,64,53,42,45,39,30,87,63,36,30.35,30.26,30.20,10,10,10,14,5,20,0.00,3,,71
2013-5-5,60,52,44,46,42,36,82,69,52,30.24,30.21,30.17,10,10,10,10,6,,0.00,6,,62
2013-5-6,62,56,50,55,52,45,94,87,77,30.19,30.12,30.06,10,7,2,10,5,17,0.00,8,,66
2013-5-7,68,62,57,61,57,55,94,88,73,30.06,29.99,29.92,10,8,1,14,7,25,0.00,8,,81
2013-5-8,68,60,51,59,54,50,100,86,52,30.02,29.99,29.96,10,7,0,8,1,,0.00,7,,183
2013-5-9,73,63,53,55,54,52,94,74,47,30.03,29.99,29.95,10,9,3,12,4,20,0.00,5,,253
2013-5-10,82,68,55,59,56,50,88,61,34,30.04,29.98,29.91,10,10,7,10,2,16,0.00,0,,161
2013-5-11,78,70,62,63,60,57,94,71,51,29.95,29.83,29.74,10,10,3,12,5,25,0.00,5,,212
2013-5-12,64,56,46,59,42,28,94,55,27,30.04,29.86,29.76,10,10,5,14,3,21,0.00,5,,299
2013-5-13,60,48,37,36,29,21,87,49,23,30.18,30.10,30.04,10,10,10,14,3,24,0.00,3,,284
2013-5-14,64,48,33,45,32,27,93,55,26,30.23,30.17,30.09,10,10,10,15,3,21,0.00,2,,253
2013-5-15,84,70,55,59,50,41,67,51,39,30.08,29.90,29.73,10,10,10,14,6,21,0.00,2,,198
2013-5-16,84,75,66,61,57,52,78,57,35,29.93,29.85,29.78,10,10,10,13,6,22,0.00,1,,251
2013-5-17,77,67,57,59,48,36,88,51,24,30.16,30.07,29.93,10,10,10,8,2,,0.00,0,,88
2013-5-18,64,62,59,59,54,50,94,76,63,30.25,30.22,30.17,10,10,4,9,4,,0.00,8,,103
2013-5-19,71,66,60,64,62,59,94,87,73,30.21,30.17,30.12,10,6,1,7,3,,0.00,8,,99
2013-5-20,80,72,64,66,64,63,94,80,58,30.15,30.08,30.02,10,9,4,9,2,16,0.00,5,,198
2013-5-21,80,73,66,66,65,63,88,76,58,30.04,29.98,29.92,10,10,7,10,5,17,0.00,4,,209
2013-5-22,82,76,69,68,66,64,88,75,61,29.98,29.93,29.88,10,10,5,14,8,18,0.00,4,,202
2013-5-23,77,72,68,66,64,63,83,76,61,29.94,29.88,29.78,10,10,10,13,8,18,0.00,5,,192
2013-5-24,68,59,50,63,47,32,94,69,47,30.14,29.93,29.77,10,10,5,16,7,28,0.00,6,,291
2013-5-25,64,53,42,36,32,30,66,46,30,30.19,30.14,30.09,10,10,10,18,10,26,0.00,1,,285
2013-5-26,69,56,44,43,35,30,76,45,23,30.24,30.19,30.15,10,10,10,16,6,23,0.00,0,,276
2013-5-27,73,58,44,52,44,34,87,58,25,30.29,30.24,30.20,10,10,10,7,1,,0.00,2,,258
2013-5-28,82,71,60,63,58,52,82,65,48,30.22,30.16,30.09,10,10,10,14,4,21,0.00,3,,193
2013-5-29,87,78,68,63,62,61,78,59,40,30.17,30.14,30.11,10,10,10,14,7,20,0.00,0,,217
2013-5-30,87,78,68,64,63,61,78,60,43,30.22,30.18,30.15,10,10,5,10,7,,0.00,0,,212
2013-5-31,89,78,68,64,62,59,83,60,36,30.19,30.14,30.07,10,10,7,14,5,20,0.00,0,,210